This is the latest recevied weather packets stored in our database for station/object K5GTX. If no packets are shown the sender has not sent any weather packets the latest 10 day(s).
| Time | Temp. | Humidity | Pressure | Rain* | Wind** | Luminosity | Snow |
|---|---|---|---|---|---|---|---|
| 1777159004 | 28.89° C | 99% | 1010.3 hPa | 0 mm | - | 31 W/m² | - |
| 1777158698 | 29.44° C | 99% | 1010.3 hPa | 0 mm | - | 45 W/m² | - |
| 1777158394 | 29.44° C | 99% | 1010.4 hPa | 0 mm | - | 65 W/m² | - |
| 1777158090 | 29.44° C | 99% | 1010.5 hPa | 0 mm | - | 95 W/m² | - |
| 1777157785 | 29.44° C | 99% | 1010.6 hPa | 0 mm | - | 100 W/m² | - |
| 1777157481 | 29.44° C | 99% | 1010.4 hPa | 0 mm | - | 120 W/m² | - |
| 1777157179 | 30° C | 99% | 1010.2 hPa | 0 mm | - | 160 W/m² | - |
| 1777156878 | 30.56° C | 99% | 1010.2 hPa | 0 mm | - | 280 W/m² | - |
| 1777156572 | 30° C | 99% | 1010.3 hPa | 0 mm | - | 275 W/m² | - |
| 1777156270 | 30° C | 99% | 1010.8 hPa | 0 mm | - | 180 W/m² | - |
| 1777155966 | 30° C | 99% | 1010.8 hPa | 0 mm | - | 226 W/m² | - |
| 1777155663 | 31.11° C | 99% | 1010.9 hPa | 0 mm | - | 186 W/m² | - |
| 1777155359 | 31.11° C | 99% | 1011 hPa | 0 mm | - | 399 W/m² | - |
| 1777155055 | 30.56° C | 99% | 1011.2 hPa | 0 mm | - | 166 W/m² | - |
| 1777154753 | 31.11° C | 99% | 1010.9 hPa | 0 mm | - | 317 W/m² | - |
| 1777154449 | 31.67° C | 99% | 1011 hPa | 0 mm | - | 410 W/m² | - |
| 1777154144 | 30.56° C | 99% | 1010.8 hPa | 0 mm | - | 506 W/m² | - |
| 1777153841 | 30.56° C | 99% | 1010.8 hPa | 0 mm | - | 511 W/m² | - |
| 1777153538 | 30.56° C | 99% | 1010.9 hPa | 0 mm | - | 204 W/m² | - |
| 1777153232 | 31.11° C | 99% | 1011.1 hPa | 0 mm | - | 231 W/m² | - |
| 1777152930 | 32.22° C | 99% | 1011.1 hPa | 0 mm | - | 535 W/m² | - |
| 1777152626 | 31.67° C | 99% | 1011.2 hPa | 0 mm | - | 526 W/m² | - |
| 1777152324 | 31.11° C | 99% | 1011.1 hPa | 0 mm | - | 592 W/m² | - |
| 1777152018 | 31.67° C | 99% | 1011 hPa | 0 mm | - | 629 W/m² | - |
| 1777151714 | 31.11° C | 99% | 1011.2 hPa | 0 mm | - | 592 W/m² | - |
* Rain latest hour (hover to see other rain measurements)
** Current wind speed in m/s (hover to see current wind gust speed)